This is the latest recevied weather packets stored in our database for station/object KD7CTY. If no packets are shown the sender has not sent any weather packets the latest 10 day(s).
| Time | Temp. | Humidity | Pressure | Rain* | Wind** | Luminosity | Snow |
|---|---|---|---|---|---|---|---|
| 1778012688 | 15° C | 82% | 1015.4 hPa | 0 mm | - | 355 W/m² | - |
| 1778012383 | 15° C | 81% | 1015.5 hPa | 0 mm | - | 341 W/m² | - |
| 1778012080 | 15.56° C | 82% | 1015.4 hPa | 0 mm | - | 332 W/m² | - |
| 1778011778 | 15.56° C | 81% | 1015.4 hPa | 0 mm | - | 360 W/m² | - |
| 1778011476 | 15° C | 81% | 1015.5 hPa | 0 mm | - | 385 W/m² | - |
| 1778011171 | 15° C | 83% | 1015.4 hPa | 0 mm | - | 344 W/m² | - |
| 1778010869 | 15° C | 83% | 1015.4 hPa | 0 mm | - | 304 W/m² | - |
| 1778010566 | 15° C | 82% | 1015.5 hPa | 0 mm | - | 340 W/m² | - |
| 1778010263 | 15° C | 83% | 1015.5 hPa | 0 mm | - | 334 W/m² | - |
| 1778009963 | 15° C | 83% | 1015.4 hPa | 0 mm | - | 344 W/m² | - |
| 1778009661 | 14.44° C | 84% | 1015.6 hPa | 0 mm | - | 307 W/m² | - |
| 1778009359 | 14.44° C | 85% | 1015.3 hPa | 0 mm | - | 294 W/m² | - |
| 1778009057 | 14.44° C | 84% | 1015.5 hPa | 0 mm | - | 258 W/m² | - |
| 1778008754 | 13.89° C | 85% | 1015.3 hPa | 0 mm | - | 266 W/m² | - |
| 1778008453 | 15° C | 84% | 1015.3 hPa | 0 mm | - | 264 W/m² | - |
| 1778008149 | 14.44° C | 85% | 1015.2 hPa | 0 mm | - | 281 W/m² | - |
| 1778007845 | 14.44° C | 84% | 1015.2 hPa | 0 mm | - | 272 W/m² | - |
| 1778007540 | 13.89° C | 85% | 1015.2 hPa | 0 mm | - | 275 W/m² | - |
| 1778007237 | 14.44° C | 83% | 1015.4 hPa | 0 mm | - | 250 W/m² | - |
| 1778006933 | 13.89° C | 84% | 1015.4 hPa | 0 mm | - | 243 W/m² | - |
| 1778006630 | 14.44° C | 84% | 1015.3 hPa | 0 mm | - | 251 W/m² | - |
| 1778006327 | 14.44° C | 83% | 1015.3 hPa | 0 mm | - | 283 W/m² | - |
| 1778006024 | 14.44° C | 84% | 1015.4 hPa | 0 mm | - | 324 W/m² | - |
| 1778005720 | 13.89° C | 85% | 1015.5 hPa | 0 mm | - | 253 W/m² | - |
| 1778005417 | 14.44° C | 84% | 1015.3 hPa | 0 mm | - | 278 W/m² | - |
* Rain latest hour (hover to see other rain measurements)
** Current wind speed in m/s (hover to see current wind gust speed)